Unicom:                    122.8

AWOS:                  118.275

Elevation           1458’ MSL

TPA:                   2500’ MSL

06/24:         5003’ L   75’ W

PAPI:       06/Left     24/Left

(Operate lights on unicom freq.)

Traffic Pattern: Left

Beacon: Sunset to Sunrise

Windsock: yes, lighted

Segmented Circle: No

 

Cleveland Center: 126.72/291.65

FSS: Altoona

[Source: ADDS]
METAR
KFKL 071856Z AUTO 26008KT 10SM OVC037 M03/M09 A3015 RMK AO2 SLP230 T10281089 FZRANO =
KFKL 071911Z 0719/0818 25006KT P6SM OVC035 FM072000 23005KT P6SM BKN045 TEMPO 0805/0809 4SM -SN FM080900 VRB05KT P6SM OVC050
TAF
KFKL 071911Z 0719/0818 25006KT P6SM OVC035 FM072000 23005KT P6SM BKN045 TEMPO 0805/0809 4SM -SN FM080900 VRB05KT P6SM OVC050 =
[Source: ADDS]
METAR
KDUJ 071853Z AUTO 22007KT 190V250 10SM BKN024 M02/M08 A3011 RMK AO2 SLP217 T10221083 =
KDUJ 071910Z 0719/0818 25010KT P6SM SCT015 OVC040 TEMPO 0719/0721 BKN025 FM080600 17003KT P6SM OVC050 TEMPO 0806/0810 4SM -SN FM081000 VRB02KT P6SM OVC040 FM081600 21005KT P6SM OVC060
TAF
KDUJ 071910Z 0719/0818 25010KT P6SM SCT015 OVC040 TEMPO 0719/0721 BKN025 FM080600 17003KT P6SM OVC050 TEMPO 0806/0810 4SM -SN FM081000 VRB02KT P6SM OVC040 FM081600 21005KT P6SM OVC060 =

About Us.

            

Clarion County Airport Authority

Overview -The Clarion County Airport Authority is a municipal authority created in 1967, under the Municipal Authorities Act of 1945.  The original purpose of the Authority was to site and construct a facility to replace Rhea Airport, a small grass airport at the US 322, PA 66 intersection, which was closed due to planned highway construction.

    The Airport Authority completed construction of the Clarion County Airport in 1975, and is responsible for overall operation of the airport.   The day to day responsibilities of airport operations are delegated to the Airport Manager, who is one of two employees of the Authority. 

 

    The Clarion County Airport supports the needs of business and recreational flyers in the area.  It’s close proximity to both Cook Forest State Park and the Allegheny National Forest affords the Airport the opportunity to provide airport users access to numerous hunting, fishing, golfing and camping activities.  In doing so, the Airport supports many of the region’s primary economic activities.


     Mission Statement  – The mission of the Clarion County Airport Authority is to provide the citizens of Clarion County and surrounding areas with safe and efficient access to the National Air Transportation System by providing and operating a general aviation business service airport.   The administration of the airport will be done in a manner that emphasizes safety and economic development for the Clarion County area, while utilizing resources in a way that will result in the most efficient use of public funds, and resulting in the least possible expense to the County taxpayers.

 

2018 Authority Officers

      Dr. Norm Wagner      President                                                                                                                                                         

      Dave Cyphert             Vice President

      Andrew Kirby             Secretary

      David Cox                   Treasurer